OPS 4682 DEB, 38420

Orbit data source: Space-Track

OPS 4682 DEB, 38420 is space debris in LEO originally from a launch on Sat, 03 Apr 1965 UTC launched from the Air Force Western Test Range (AFWTR). Debris objects in space refer to the collection of defunct objects orbiting the Earth. Examples of debris include non-operational satellites, rocket bodies, and fragments generated from explosions, collisions, or faulty payload assembly.

Loading next visibility...
Identifier
38420, 1965-027DZ
Orbit
LEO
Country
Flag of USUS
Related business
Manufacturer
Unknown
Mission
Spacecraft
Bus & Motor
Unknown
Mass
Unknown
Launch date (UTC)
1965-04-03 (61 years ago)
Launch vehicle
Unknown
Launch site
Air Force Western Test Range (AFWTR)
Object type
Payload
Rocket body
Debris
Shape & HBR
Unknown shape, 0.1 m
Radar Cross Section
Medium (>0.1 m² and <1 m²)

Expand to show TLE details & history
Last TLE update: 6 days ago

TLE from 6 days ago
0 OPS 4682 DEB
1 38420U 65027DZ  26257.08148362  .00000847  00000-0  27855-2 0  9999
2 38420  90.2544  12.9887 0028854  39.3351 320.9860 13.00024745565931
Epoch: 2026-09-14T01:57Z
TLE epoch observation values (Epoch: 2026-09-14T01:57:20.184Z)
Latitude
-0.00001°
Longitude
-9.4123°
Altitude
1,247.767 km
Speed
7.239 km/s
True Right ascension
00h 51m 57s
True Declination
0° 00' 00"
Sunlit
Object was in full shadow at epoch
Visualization orbit readout
Latitude
Unknown
Longitude
Unknown
Altitude
Unknown
Speed
Unknown
Apparent Right ascension
Unknown
Apparent Declination
Unknown
Sunlit
N/A
Visualization observer readout
Local Sidereal Time
06:08:27
Azimuth
Unknown
Elevation
Unknown
Doppler factor
Unknown
Orbital elements
Apogee altitude
1,281.153 km
Perigee altitude
1,237.08 km
Semi-major axis
7,637.254 km
Eccentricity
0.00289
Inclination
90.2544°
RAAN
12.9887°
Arg. of periapsis
39.3351°
True anomaly
320.77727°
Mean anomaly
320.986°
Eccentric anomaly
320.88169°
Mean motion
3.2519 °/min
Orbital period
110.7 mins
BSTAR
0.0027855
Loading maneuver chart data...
Computing Atmospheric mass density...
Loading historical data...
Loading historical data...
Loading historical data...
Loading historical data...
Loading historical data...
Loading historical data...
Loading historical data...

Documentation

Showing up to 5 results
|